T7GPM LIRZ-LEBL

Flight info

Callsign T7GPM
Flight time N/A
Altitude 33000
Route GITOD5N GITOD DCT GIKIN DCT MEDAL DCT MAMAR DCT BATOX DCT ROMPO DCT INDUM DCT EPIKU/N0353F340 DCT GINOX DCT KIFMI DCT ELVOP DCT MUREN DCT VERSO VERSO3E
Aircraft P180/L-SDE3FGHIRWY/C

Departure

Time 2026-04-29 20:27
Airport Perugia San Francesco d'Assisi – Umbria International Airport (LIRZ)

Arrival

Time N/A
Airport Josep Tarradellas Barcelona-El Prat Airport (LEBL)
Time Latitude Longitude Altitude Speed Heading
2026-04-29 20:00 43.09510 12.50373 681 ft 0 kts 249°
2026-04-29 20:19 43.09506 12.50369 681 ft 2 kts 209°
2026-04-29 20:19 43.09498 12.50390 679 ft 4 kts 50°
2026-04-29 20:19 43.09526 12.50426 681 ft 7 kts 56°
2026-04-29 20:20 43.09555 12.50494 679 ft 10 kts 66°
2026-04-29 20:20 43.09582 12.50586 680 ft 11 kts 66°
2026-04-29 20:20 43.09615 12.50685 681 ft 12 kts 65°
2026-04-29 20:20 43.09650 12.50791 683 ft 13 kts 66°
2026-04-29 20:21 43.09687 12.50903 683 ft 13 kts 65°
2026-04-29 20:21 43.09726 12.51023 682 ft 14 kts 66°
2026-04-29 20:21 43.09767 12.51140 685 ft 13 kts 51°
2026-04-29 20:21 43.09853 12.51183 682 ft 14 kts 15°
2026-04-29 20:22 43.09947 12.51215 687 ft 14 kts 14°
2026-04-29 20:22 43.10041 12.51248 688 ft 14 kts 14°
2026-04-29 20:22 43.10134 12.51280 687 ft 14 kts 14°
2026-04-29 20:22 43.10230 12.51314 690 ft 14 kts 14°
2026-04-29 20:23 43.10329 12.51349 691 ft 15 kts 14°
2026-04-29 20:23 43.10433 12.51385 692 ft 16 kts 14°
2026-04-29 20:23 43.10539 12.51422 690 ft 16 kts 14°
2026-04-29 20:23 43.10644 12.51458 694 ft 16 kts 14°
2026-04-29 20:24 43.10739 12.51491 695 ft 7 kts 14°
2026-04-29 20:24 43.10781 12.51538 693 ft 10 kts 68°
2026-04-29 20:24 43.10782 12.51567 694 ft 0 kts 102°
2026-04-29 20:25 43.10781 12.51575 694 ft 5 kts 103°
2026-04-29 20:25 43.10764 12.51666 684 ft 12 kts 107°
2026-04-29 20:25 43.10712 12.51713 679 ft 0 kts 193°
2026-04-29 20:26 43.10477 12.51632 681 ft 68 kts 194°
2026-04-29 20:26 43.09791 12.51392 673 ft 141 kts 194°
2026-04-29 20:26 43.08739 12.51028 1285 ft 151 kts 194°
2026-04-29 20:27 43.07840 12.50719 2096 ft 131 kts 198°
2026-04-29 20:27 43.07341 12.50255 2328 ft 134 kts 227°
2026-04-29 20:27 43.06306 12.49298 2776 ft 138 kts 201°
2026-04-29 20:27 43.05396 12.48729 3109 ft 152 kts 207°
2026-04-29 20:28 43.04416 12.47992 3443 ft 170 kts 208°
2026-04-29 20:28 43.03322 12.47202 3788 ft 184 kts 207°
2026-04-29 20:28 43.02174 12.46413 4210 ft 189 kts 206°
2026-04-29 20:28 43.00979 12.45594 4655 ft 193 kts 207°
2026-04-29 20:29 42.99763 12.44749 4999 ft 202 kts 207°
2026-04-29 20:29 42.98444 12.43832 5087 ft 219 kts 207°
2026-04-29 20:29 42.97085 12.42893 5472 ft 218 kts 207°
2026-04-29 20:29 42.95743 12.41952 5881 ft 216 kts 207°
2026-04-29 20:30 42.94405 12.41019 6282 ft 215 kts 207°
2026-04-29 20:30 42.93073 12.40097 6676 ft 214 kts 207°
2026-04-29 20:30 42.91745 12.39181 7059 ft 213 kts 207°
2026-04-29 20:30 42.90441 12.38280 7438 ft 212 kts 207°
2026-04-29 20:31 42.89123 12.37368 7832 ft 212 kts 208°
2026-04-29 20:31 42.87801 12.36454 8231 ft 211 kts 208°
2026-04-29 20:31 42.86495 12.35551 8632 ft 210 kts 208°
2026-04-29 20:31 42.85194 12.34651 9035 ft 214 kts 209°
2026-04-29 20:32 42.83854 12.33726 9450 ft 218 kts 209°
2026-04-29 20:32 42.82493 12.32788 9872 ft 221 kts 209°
2026-04-29 20:32 42.81115 12.31840 10265 ft 222 kts 209°
2026-04-29 20:32 42.79777 12.30756 10649 ft 225 kts 225°
2026-04-29 20:33 42.78767 12.29107 11048 ft 229 kts 233°
2026-04-29 20:33 42.77672 12.27496 11444 ft 234 kts 226°
2026-04-29 20:33 42.76476 12.25964 11847 ft 237 kts 226°
2026-04-29 20:33 42.75327 12.24389 12250 ft 238 kts 229°
2026-04-29 20:34 42.74208 12.22728 12662 ft 238 kts 230°
2026-04-29 20:34 42.73098 12.21048 13073 ft 238 kts 230°
2026-04-29 20:34 42.71968 12.19398 13490 ft 238 kts 229°
2026-04-29 20:34 42.70819 12.17770 13913 ft 239 kts 229°
2026-04-29 20:35 42.69667 12.16143 14291 ft 239 kts 229°
2026-04-29 20:35 42.68528 12.14502 14663 ft 238 kts 230°
2026-04-29 20:35 42.67393 12.12849 15049 ft 239 kts 230°
2026-04-29 20:35 42.66272 12.11228 15434 ft 238 kts 230°
2026-04-29 20:36 42.65129 12.09593 15828 ft 238 kts 230°
2026-04-29 20:36 42.63991 12.07969 16227 ft 237 kts 230°
2026-04-29 20:36 42.62858 12.06341 16631 ft 236 kts 230°
2026-04-29 20:36 42.61727 12.04727 17039 ft 236 kts 228°
2026-04-29 20:37 42.60491 12.03256 17456 ft 236 kts 224°
2026-04-29 20:37 42.59246 12.01811 17861 ft 235 kts 225°
2026-04-29 20:37 42.58038 12.00336 18286 ft 233 kts 226°
2026-04-29 20:37 42.56844 11.98854 18664 ft 232 kts 226°
2026-04-29 20:38 42.55645 11.97403 19028 ft 230 kts 225°
2026-04-29 20:38 42.54439 11.95977 19402 ft 229 kts 225°
2026-04-29 20:38 42.53247 11.94562 19780 ft 227 kts 225°
2026-04-29 20:38 42.52065 11.93140 20164 ft 226 kts 226°
2026-04-29 20:39 42.50909 11.91743 20551 ft 225 kts 226°
2026-04-29 20:39 42.49732 11.90331 20946 ft 226 kts 225°
2026-04-29 20:39 42.48545 11.88918 21334 ft 229 kts 225°
2026-04-29 20:39 42.47349 11.87490 21750 ft 229 kts 226°
2026-04-29 20:40 42.46153 11.86055 22162 ft 229 kts 226°
2026-04-29 20:40 42.44956 11.84624 22589 ft 229 kts 225°
2026-04-29 20:40 42.43758 11.83196 23011 ft 230 kts 225°
2026-04-29 20:40 42.42559 11.81766 23445 ft 230 kts 226°
2026-04-29 20:41 42.41375 11.80354 23842 ft 230 kts 226°
2026-04-29 20:41 42.40171 11.78915 24166 ft 232 kts 226°
2026-04-29 20:41 42.38949 11.77456 24481 ft 235 kts 226°
2026-04-29 20:41 42.37709 11.75979 24790 ft 239 kts 225°
2026-04-29 20:42 42.36450 11.74483 25099 ft 242 kts 225°
2026-04-29 20:42 42.35176 11.72968 25418 ft 246 kts 225°
2026-04-29 20:42 42.33881 11.71428 25739 ft 249 kts 225°
2026-04-29 20:42 42.32572 11.69871 26063 ft 252 kts 225°
2026-04-29 20:43 42.31247 11.68297 26390 ft 255 kts 225°
2026-04-29 20:43 42.29905 11.66706 26716 ft 258 kts 225°
2026-04-29 20:43 42.28563 11.65112 27048 ft 261 kts 225°
2026-04-29 20:43 42.27193 11.63487 27380 ft 263 kts 225°
2026-04-29 20:44 42.25807 11.61846 27723 ft 266 kts 225°
2026-04-29 20:44 42.24408 11.60191 28069 ft 269 kts 225°
2026-04-29 20:44 42.22993 11.58519 28419 ft 271 kts 225°
2026-04-29 20:44 42.21590 11.56857 28759 ft 273 kts 225°
2026-04-29 20:45 42.20153 11.55156 29130 ft 275 kts 225°
2026-04-29 20:45 42.18720 11.53466 29487 ft 273 kts 225°
2026-04-29 20:45 42.17286 11.51776 29853 ft 275 kts 225°
2026-04-29 20:45 42.15846 11.50078 30207 ft 276 kts 225°
2026-04-29 20:46 42.14403 11.48371 30523 ft 275 kts 225°
2026-04-29 20:46 42.12976 11.46692 30835 ft 269 kts 225°
2026-04-29 20:46 42.11582 11.45059 31143 ft 262 kts 225°
2026-04-29 20:46 42.10222 11.43462 31458 ft 256 kts 225°
2026-04-29 20:47 42.08898 11.41899 31773 ft 253 kts 226°
2026-04-29 20:47 42.07574 11.40333 32100 ft 253 kts 226°
2026-04-29 20:47 42.06256 11.38786 32427 ft 248 kts 225°
2026-04-29 20:47 42.05397 11.37784 32647 ft 245 kts 225°
2026-04-29 20:48 42.03689 11.35857 33045 ft 237 kts 225°
2026-04-29 20:48 42.02408 11.34415 33053 ft 243 kts 225°
2026-04-29 20:48 42.01096 11.32928 33052 ft 249 kts 225°
2026-04-29 20:48 41.99728 11.31381 33060 ft 263 kts 225°
2026-04-29 20:49 41.98291 11.29767 33068 ft 274 kts 224°
2026-04-29 20:49 41.96800 11.28100 33067 ft 283 kts 223°
2026-04-29 20:49 41.95262 11.26382 33068 ft 293 kts 223°
2026-04-29 20:49 41.93670 11.24596 33069 ft 302 kts 223°
2026-04-29 20:50 41.90399 11.20924 33070 ft 314 kts 223°
2026-04-29 20:50 41.86985 11.17115 33066 ft 324 kts 223°
2026-04-29 20:51 41.83478 11.13188 33068 ft 333 kts 223°
2026-04-29 20:51 41.79944 11.09083 33068 ft 338 kts 228°
2026-04-29 20:52 41.76987 11.04145 33067 ft 342 kts 234°
2026-04-29 20:52 41.73900 10.99219 33068 ft 348 kts 231°
2026-04-29 20:53 41.70724 10.94280 33071 ft 351 kts 233°
2026-04-29 20:53 41.67661 10.89135 33062 ft 359 kts 233°
2026-04-29 20:54 41.62750 10.81445 33061 ft 363 kts 232°
2026-04-29 20:55 41.59550 10.76206 33059 ft 365 kts 233°
2026-04-29 20:55 41.56849 10.71858 33061 ft 366 kts 231°
2026-04-29 20:56 41.53528 10.66688 33065 ft 367 kts 232°
2026-04-29 20:56 41.50278 10.61422 33063 ft 367 kts 232°
2026-04-29 20:57 41.46998 10.56190 33052 ft 368 kts 231°
2026-04-29 20:57 41.43689 10.51024 33049 ft 369 kts 231°
2026-04-29 20:58 41.40411 10.45755 33050 ft 369 kts 231°
2026-04-29 20:58 41.37094 10.40521 33048 ft 370 kts 230°
2026-04-29 20:59 41.33749 10.35293 33048 ft 370 kts 231°
2026-04-29 20:59 41.30452 10.30017 33043 ft 370 kts 231°
2026-04-29 21:00 41.27113 10.24805 33037 ft 370 kts 230°
2026-04-29 21:00 41.23800 10.19626 33038 ft 369 kts 231°
2026-04-29 21:01 41.20788 10.14105 33034 ft 369 kts 242°
2026-04-29 21:01 41.19837 10.10953 33033 ft 369 kts 253°
2026-04-29 21:01 41.19148 10.07669 33032 ft 369 kts 252°
2026-04-29 21:02 41.17140 10.01399 33031 ft 369 kts 244°
2026-04-29 21:02 41.15088 9.95214 33023 ft 369 kts 249°
2026-04-29 21:03 41.13431 9.88765 33024 ft 369 kts 251°
2026-04-29 21:03 41.11525 9.82451 33026 ft 369 kts 246°
2026-04-29 21:04 41.09613 9.76126 33021 ft 370 kts 253°
2026-04-29 21:04 41.08831 9.69439 33017 ft 370 kts 265°
2026-04-29 21:05 41.08263 9.62656 33014 ft 370 kts 259°
2026-04-29 21:05 41.07190 9.55986 33014 ft 370 kts 257°
2026-04-29 21:06 41.06289 9.49281 33017 ft 370 kts 262°
2026-04-29 21:06 41.05599 9.42525 33029 ft 370 kts 260°
2026-04-29 21:07 41.04593 9.35835 33035 ft 371 kts 258°
2026-04-29 21:07 41.03739 9.29091 33035 ft 371 kts 261°
2026-04-29 21:08 41.02955 9.22367 33032 ft 371 kts 259°
2026-04-29 21:08 41.01966 9.15648 33032 ft 372 kts 259°
2026-04-29 21:09 41.01122 9.08884 33037 ft 372 kts 261°
2026-04-29 21:09 41.00273 9.02135 33029 ft 373 kts 259°
2026-04-29 21:10 40.99298 8.95382 33036 ft 373 kts 259°
2026-04-29 21:10 40.98449 8.88620 33028 ft 372 kts 261°
2026-04-29 21:11 40.97499 8.81884 33027 ft 371 kts 257°
2026-04-29 21:11 40.96325 8.75264 33026 ft 371 kts 257°
2026-04-29 21:12 40.95285 8.68577 33028 ft 371 kts 259°
2026-04-29 21:12 40.94220 8.61893 33028 ft 371 kts 257°
2026-04-29 21:13 40.93057 8.55227 33027 ft 372 kts 257°
2026-04-29 21:13 40.92007 8.48526 33028 ft 372 kts 258°
2026-04-29 21:14 40.90902 8.41865 33029 ft 372 kts 257°
2026-04-29 21:14 40.89749 8.35193 33029 ft 372 kts 258°
2026-04-29 21:15 40.88688 8.28520 33028 ft 373 kts 258°
2026-04-29 21:15 40.87549 8.21821 33024 ft 374 kts 257°
2026-04-29 21:16 40.86402 8.15122 33025 ft 374 kts 258°
2026-04-29 21:16 40.85711 8.08314 33021 ft 374 kts 271°
2026-04-29 21:17 40.86382 8.01551 33015 ft 374 kts 276°
2026-04-29 21:17 40.86583 7.94687 33014 ft 374 kts 271°
2026-04-29 21:18 40.86934 7.87812 33015 ft 374 kts 277°
2026-04-29 21:18 40.87650 7.80993 33014 ft 375 kts 277°
2026-04-29 21:19 40.88013 7.74115 33012 ft 375 kts 273°
2026-04-29 21:19 40.88406 7.67275 33011 ft 375 kts 277°
2026-04-29 21:20 40.89008 7.60434 33013 ft 375 kts 276°
2026-04-29 21:20 40.89363 7.53507 33004 ft 377 kts 274°
2026-04-29 21:21 40.89537 7.50298 33003 ft 377 kts 276°